Temp
40 42 42 41 42 41 37 37 37 35 33 33 33 32 31 30 30 29 28 28 27 26 26 26 25 25 23 22 24 23 22 22 17 22 27 26 26 26 27 27 28 28 29
43 43 41 41 39 39 38 36 36 34 33 33 32 32 32 31 30 29 27 27 25 25 25 24 23 24 21 21 21 20 20 21 19 16 22 23 22 24 24 24 27 30 29
41 39 38 38 37 38 39 35 35 34 33 32 32 32 31 31 29 29 28 27 26 26 25 24 22 21 18 18 19 18 19 21 19 17 17 21 22 24 24 26 26 28 30
38 38 39 38 38 40 39 35 34 34 32 31 32 32 31 30 29 29 28 26 25 25 25 24 22 21 19 17 18 17 18 16 16 16 17 18 21 24 25 23 23 26 27
39 40 40 41 41 40 38 34 33 32 33 32 30 30 30 30 29 28 27 23 23 22 22 23 22 22 24 21 18 16 15 13 13 13 16 18 21 23 22 24 23 23 25
41 40 42 39 36 36 36 33 31 30 30 30 29 28 27 30 33 32 28 23 22 22 21 21 22 21 24 26 25 24 19 12 11 12 18 20 21 23 24 23 22 20 18
38 40 37 32 33 33 32 31 30 29 29 29 28 27 26 28 33 33 30 24 22 22 21 21 21 23 21 23 27 28 28 29 29 25 20 21 21 23 23 22 22 22 21
36 36 30 32 33 30 29 28 28 29 27 27 26 26 26 26 34 34 31 24 22 22 22 22 22 22 22 22 22 20 21 22 23 24 23 23 24 25 26 26 23 20 20
32 31 29 29 30 26 27 27 28 27 26 26 25 24 24 24 34 34 30 22 21 21 23 23 22 22 24 26 21 16 19 22 27 30 31 31 31 30 29 22 14 12 12
30 29 26 24 23 26 26 25 26 26 25 25 22 23 23 22 34 34 29 22 18 19 21 23 23 23 25 27 21 15 12 20 22 16 21 22 23 22 24 21 15 10 11
26 22 19 20 21 25 25 24 22 22 23 21 20 20 20 22 30 34 31 21 19 18 18 19 22 27 26 28 28 21 20 21 16 10 12 14 16 17 17 18 19 16 13
28 22 22 18 19 22 23 21 21 21 19 18 17 17 18 21 28 34 33 26 25 17 18 20 21 27 27 27 27 26 26 23 3 1 4 8 11 13 17 19 20 20 20
31 28 24 22 20 21 20 18 18 19 18 16 16 17 16 18 23 32 33 29 27 19 20 22 24 26 27 25 22 22 18 9 3 0 5 9 14 16 18 17 18 18 18
26 27 24 21 19 19 20 18 18 16 17 17 16 16 16 16 18 25 27 29 26 22 24 24 23 19 19 18 15 16 14 12 10 8 9 12 14 13 12 15 13 14 12
22 25 23 20 19 18 19 18 18 19 20 18 18 18 15 14 17 24 25 25 23 21 12 12 9 11 10 11 10 9 10 10 9 9 8 8 9 10 11 13 12 11 9
16 20 23 20 18 18 17 16 24 24 24 26 25 22 20 25 24 26 28 28 25 22 11 7 8 9 9 9 7 7 7 8 9 8 7 7 7 7 8 9 10 10 9
12 15 21 19 18 16 15 16 14 20 26 26 27 26 25 25 26 27 28 28 26 21 9 8 8 7 6 6 6 5 4 6 7 6 6 5 6 5 5 6 8 9 9
11 14 17 21 18 16 16 15 15 15 17 18 25 26 26 25 27 28 28 28 21 12 8 6 4 3 3 3 3 3 2 2 2 3 2 0 1 2 3 4 7 6 8
11 13 17 21 18 17 16 15 14 15 17 17 20 24 24 26 27 28 28 18 9 5 4 2 2 1 0 -1 -2 -4 -7 -8 -3 -4 -7 -4 0 1 3 5 6 8 9
9 12 15 18 16 14 14 13 14 15 16 18 19 20 20 22 22 22 14 10 6 4 2 1 -2 -3 -4 -6 -11 -13 -17 -12 -8 -8 -8 -3 -0 2 4 4 7 7 7
9 12 15 18 14 13 13 13 14 15 16 17 18 20 24 22 19 8 7 7 5 3 0 -1 -3 -6 -9 -13 -15 -17 -15 -10 -7 -11 -7 -3 -0 0 4 5 8 8 7
9 13 15 13 13 12 13 14 15 16 17 16 17 20 26 12 10 7 5 3 2 1 -1 -2 -6 -9 -10 -11 -11 -13 -13 -11 -10 -12 -7 -2 -1 1 3 7 8 7 6
13 13 12 12 12 12 13 14 15 15 15 14 16 17 9 7 5 4 2 -1 -2 -4 -5 -8 -9 -10 -11 -12 -12 -10 -11 -10 -10 -13 -7 -4 -2 1 6 7 7 5 5
9 9 10 10 11 11 10 11 12 10 11 13 11 7 5 4 2 0 -1 -3 -4 -6 -7 -8 -9 -10 -12 -14 -14 -14 -13 -11 -12 -10 -8 -4 -1 4 7 7 5 4 5
7 7 8 8 8 8 8 8 7 9 9 5 3 2 1 0 -1 -3 -4 -4 -5 -8 -8 -8 -8 -9 -11 -11 -12 -13 -12 -7 -8 -6 -4 1 6 4 7 5 4 4 4
4 4 4 5 5 5 6 6 5 4 3 2 1 0 -0 -2 -3 -4 -5 -6 -6 -6 -7 -8 -8 -9 -10 -10 -11 -8 -6 1 2 7 11 12 2 6 6 3 2 3 3
MSLP
1005.38 1005.76 1006.16 1006.29 1006.49 1007.29 1007.76 1008.78 1009.51 1010.29 1011.08 1011.92 1013.00 1013.97 1014.89 1015.99 1016.83 1017.84 1018.41 1018.97 1019.39 1020.27 1021.08 1021.46 1021.99 1022.08 1022.67 1022.97 1023.74 1023.98 1024.19 1024.51 1024.24 1023.38 1023.01 1022.82 1022.99 1022.95 1022.68 1022.11 1021.59 1021.34 1020.46
1003.87 1004.54 1004.81 1005.70 1006.26 1006.78 1006.84 1007.19 1008.31 1009.35 1010.35 1010.99 1012.08 1012.71 1013.84 1014.86 1015.76 1016.84 1017.76 1018.62 1018.90 1019.30 1020.10 1020.97 1021.71 1021.85 1022.01 1022.58 1023.09 1023.63 1023.91 1024.16 1024.14 1023.40 1023.27 1022.98 1023.16 1022.61 1022.17 1021.69 1020.80 1020.44 1020.10
1003.25 1003.75 1004.30 1005.05 1005.84 1005.84 1005.85 1006.51 1007.45 1008.37 1009.11 1010.07 1010.89 1011.75 1012.51 1013.51 1014.60 1015.66 1016.68 1017.66 1018.44 1018.45 1019.18 1020.04 1020.82 1021.78 1021.88 1022.33 1023.03 1023.38 1023.49 1023.71 1023.78 1023.68 1023.18 1022.82 1022.35 1021.76 1021.00 1020.46 1019.91 1019.29 1019.23
1002.78 1002.88 1002.97 1003.22 1003.52 1004.06 1004.81 1005.31 1006.14 1007.13 1008.15 1008.81 1009.29 1010.26 1011.33 1012.53 1013.78 1014.71 1015.84 1016.85 1017.90 1018.31 1018.54 1019.54 1019.85 1020.42 1020.96 1021.96 1022.73 1022.75 1023.25 1023.93 1023.72 1023.47 1023.09 1022.73 1022.07 1021.14 1020.44 1019.60 1018.62 1018.85 1018.16
1002.47 1002.68 1002.10 1001.73 1001.99 1002.92 1003.74 1004.11 1005.19 1006.09 1007.11 1007.90 1008.56 1009.58 1010.57 1011.38 1012.12 1013.50 1014.74 1015.77 1017.17 1017.68 1018.26 1018.74 1019.39 1019.71 1020.14 1020.82 1021.45 1022.04 1022.98 1023.46 1023.31 1023.09 1022.37 1021.74 1021.00 1020.53 1020.17 1019.66 1018.75 1017.83 1017.27
1001.86 1001.97 1001.50 1001.48 1002.02 1001.91 1003.00 1003.26 1003.81 1005.05 1006.34 1006.94 1007.85 1008.65 1009.91 1010.30 1010.80 1012.41 1013.84 1015.38 1016.41 1017.08 1017.94 1018.35 1019.35 1019.55 1019.79 1020.05 1020.79 1021.46 1022.24 1022.56 1022.62 1022.30 1021.94 1020.95 1020.32 1020.35 1019.89 1019.78 1018.99 1017.96 1015.85
1002.02 1001.03 1000.73 1000.89 1001.44 1001.70 1001.89 1003.05 1003.29 1004.81 1005.90 1006.36 1006.75 1007.79 1008.88 1009.34 1009.55 1011.06 1012.81 1013.83 1015.02 1016.02 1017.02 1017.70 1018.62 1019.01 1019.42 1019.64 1019.82 1020.38 1021.01 1021.19 1021.22 1021.45 1021.03 1020.60 1020.09 1020.48 1019.96 1019.34 1018.83 1017.79 1016.69
1002.34 1001.73 1001.44 1001.26 1001.07 1001.55 1001.27 1001.76 1002.70 1003.77 1004.48 1005.62 1006.68 1007.34 1008.31 1008.33 1008.96 1010.34 1011.92 1013.23 1013.92 1014.58 1015.71 1016.65 1017.79 1018.31 1019.12 1019.78 1020.05 1020.23 1020.65 1020.47 1021.17 1021.10 1020.77 1020.36 1020.08 1019.70 1019.22 1018.93 1018.33 1017.54 1016.59
1002.65 1002.56 1002.56 1001.54 1001.62 1002.21 1001.89 1002.22 1002.48 1003.30 1003.99 1005.08 1005.58 1006.12 1007.48 1008.53 1009.15 1010.41 1011.41 1012.80 1013.64 1014.57 1015.65 1016.41 1017.31 1017.83 1018.36 1018.94 1019.01 1019.87 1019.87 1020.34 1020.36 1019.83 1019.53 1019.58 1019.52 1019.12 1018.88 1018.74 1018.53 1018.00 1015.83
1003.66 1002.14 1001.77 1002.14 1001.77 1002.07 1002.03 1002.12 1002.79 1003.47 1003.78 1004.37 1005.34 1005.48 1006.25 1007.14 1007.98 1009.19 1010.43 1011.78 1013.19 1013.90 1015.10 1015.85 1016.50 1016.69 1017.26 1018.06 1018.43 1019.01 1019.52 1019.86 1019.53 1019.32 1019.60 1019.36 1019.61 1019.50 1019.13 1018.99 1018.48 1018.07 1016.95
1003.60 1003.36 1001.91 1002.13 1002.50 1002.48 1002.25 1002.61 1003.20 1004.09 1004.39 1004.38 1004.79 1005.48 1006.59 1006.61 1007.07 1008.14 1009.34 1010.39 1011.65 1012.54 1013.67 1014.97 1015.43 1015.97 1016.58 1016.90 1017.15 1018.01 1018.87 1018.84 1019.01 1019.51 1019.76 1019.30 1018.78 1018.90 1018.70 1018.42 1017.98 1017.26 1016.23
1003.09 1003.08 1003.19 1002.04 1001.98 1002.45 1003.29 1003.20 1003.80 1004.53 1004.40 1004.25 1005.02 1005.68 1006.55 1006.76 1006.94 1007.26 1007.90 1009.47 1010.66 1011.06 1012.21 1013.50 1014.41 1014.88 1015.48 1015.68 1016.01 1017.14 1018.33 1018.44 1018.96 1019.40 1019.92 1019.35 1018.70 1018.10 1017.87 1017.34 1016.80 1015.99 1015.21
1002.66 1002.69 1002.53 1002.24 1002.10 1001.89 1002.38 1003.32 1004.13 1004.90 1004.87 1004.24 1004.77 1005.70 1006.75 1006.92 1007.22 1007.26 1007.62 1009.23 1010.16 1011.42 1012.03 1012.80 1013.51 1013.88 1014.57 1015.35 1016.17 1017.05 1018.02 1018.64 1019.10 1019.41 1019.10 1018.58 1018.26 1017.52 1016.99 1016.34 1015.83 1015.02 1013.86
1003.35 1002.54 1002.15 1001.73 1001.52 1002.03 1001.70 1002.06 1002.82 1003.65 1003.98 1004.38 1004.59 1005.09 1006.01 1006.49 1006.95 1007.59 1008.10 1008.81 1010.34 1011.05 1011.88 1012.73 1013.41 1013.79 1014.76 1015.85 1016.15 1016.46 1017.64 1018.28 1018.82 1018.97 1018.07 1017.59 1017.27 1016.84 1016.49 1015.72 1014.88 1014.07 1012.88
1003.37 1001.80 1001.23 1001.23 1000.74 1000.80 1001.54 1001.33 1001.55 1001.58 1001.60 1002.11 1003.13 1003.46 1003.88 1004.66 1004.62 1005.35 1006.49 1007.72 1009.08 1010.45 1011.88 1012.89 1013.77 1014.42 1015.33 1015.73 1016.29 1016.95 1017.14 1017.34 1018.07 1018.15 1017.76 1017.06 1016.28 1016.03 1015.51 1014.91 1014.14 1013.23 1012.05
1003.15 1001.91 1001.07 1000.15 1000.15 1000.34 1000.09 1000.75 1000.68 1001.46 1001.69 1001.27 1002.02 1002.50 1003.21 1003.39 1003.87 1003.91 1004.91 1006.56 1008.16 1009.53 1011.60 1012.30 1013.39 1014.28 1015.12 1015.71 1016.48 1016.98 1017.06 1017.47 1017.73 1017.63 1017.13 1016.55 1015.65 1015.31 1014.64 1014.00 1013.47 1012.48 1010.78
1002.41 1001.22 999.99 999.19 999.32 999.31 999.35 999.90 999.04 999.92 1000.38 1000.72 1001.20 1001.53 1002.02 1003.03 1003.77 1004.48 1004.75 1005.84 1006.73 1008.45 1010.07 1011.41 1012.65 1013.64 1014.56 1015.30 1015.81 1016.15 1016.39 1017.35 1017.46 1017.13 1016.77 1015.97 1015.34 1014.91 1014.34 1013.35 1012.24 1011.17 1009.29
1001.53 1000.49 999.27 998.14 998.01 998.30 998.72 998.90 998.11 998.50 999.18 999.60 999.93 1000.78 1001.51 1002.07 1003.07 1003.86 1004.69 1006.09 1007.58 1009.95 1010.09 1011.22 1012.10 1013.11 1014.22 1015.07 1015.78 1016.03 1016.50 1017.03 1017.13 1016.83 1016.33 1015.40 1015.09 1014.75 1013.63 1012.57 1011.43 1010.17 1008.42
1000.06 998.89 998.22 997.01 996.87 997.23 997.55 998.14 997.16 997.95 998.59 998.83 999.25 1000.01 1001.48 1001.56 1002.70 1003.41 1004.14 1004.91 1007.32 1009.47 1011.01 1012.35 1012.66 1013.24 1013.78 1014.15 1015.10 1016.26 1016.82 1016.95 1016.95 1016.85 1015.66 1014.63 1014.79 1014.24 1013.04 1011.75 1010.51 1009.13 1007.93
999.22 998.22 997.61 996.70 996.36 996.91 997.11 997.15 996.51 997.26 997.82 998.03 998.30 998.82 1000.58 1001.15 1002.10 1002.70 1004.23 1005.80 1007.46 1008.89 1010.67 1012.23 1012.55 1013.71 1014.26 1014.33 1015.17 1016.45 1016.96 1016.64 1016.47 1016.33 1014.79 1014.37 1014.07 1013.55 1012.37 1010.77 1009.68 1008.35 1006.89
997.51 996.53 995.78 994.95 995.14 995.99 996.12 996.57 996.21 996.49 996.84 997.32 997.96 998.60 999.40 1000.10 1001.47 1003.39 1004.57 1006.53 1007.31 1008.94 1010.55 1011.63 1012.80 1013.35 1014.09 1014.78 1015.37 1016.20 1016.39 1016.02 1015.97 1015.03 1014.19 1013.69 1013.18 1012.55 1011.40 1009.99 1008.64 1007.47 1006.03
995.85 994.95 994.49 994.40 994.93 995.36 995.58 995.82 995.84 996.31 996.70 997.21 998.15 998.80 999.42 1001.25 1002.53 1004.08 1005.41 1006.80 1007.80 1009.12 1010.37 1011.34 1012.27 1013.02 1013.85 1014.53 1014.81 1015.30 1015.42 1015.29 1014.71 1014.12 1013.66 1013.01 1012.37 1011.54 1010.36 1008.87 1007.78 1006.49 1005.12
994.23 993.72 993.93 994.30 994.71 995.13 995.49 995.66 995.86 996.13 996.88 997.81 998.65 999.02 1000.74 1002.28 1003.67 1005.10 1006.27 1007.58 1008.75 1009.73 1010.76 1011.44 1012.23 1013.16 1013.67 1014.12 1014.25 1014.22 1014.23 1013.81 1013.56 1013.41 1012.97 1012.29 1011.49 1010.55 1009.31 1007.98 1006.91 1005.58 1004.51
994.91 994.64 994.65 994.86 995.09 995.38 995.66 996.04 996.58 997.27 997.69 998.19 999.54 1001.04 1002.52 1003.54 1004.64 1006.04 1007.31 1008.47 1009.44 1010.34 1010.97 1011.87 1012.26 1012.70 1013.39 1013.64 1013.49 1013.37 1013.18 1012.90 1012.79 1012.28 1012.04 1011.31 1010.40 1009.35 1008.29 1007.17 1006.25 1005.10 1003.80
996.17 995.91 995.84 995.86 996.03 996.37 996.78 997.16 997.56 998.16 998.85 1000.06 1001.25 1002.45 1003.48 1004.68 1005.78 1007.04 1008.15 1009.11 1009.90 1010.58 1011.20 1011.64 1012.17 1012.34 1012.42 1012.39 1012.35 1012.26 1012.11 1011.66 1011.39 1010.97 1010.64 1009.89 1008.81 1008.26 1007.32 1006.51 1005.71 1004.48 1002.85
997.39 997.21 997.17 997.18 997.33 997.57 997.88 998.36 999.01 999.67 1000.41 1001.45 1002.41 1003.38 1004.37 1005.56 1006.74 1007.91 1008.86 1009.53 1010.09 1010.73 1011.09 1011.37 1011.58 1011.64 1011.58 1011.55 1011.52 1011.29 1010.83 1010.27 1009.83 1009.09 1008.56 1008.26 1007.92 1007.27 1006.47 1006.01 1005.20 1003.95 1002.23
Wind_Speed
13 14 14 15 15 13 12 12 13 12 14 15 15 15 16 14 13 11 9 10 10 8 6 7 6 6 5 5 4 3 4 4 4 3 2 1 3 7 9 8 9 10 9
14 14 17 12 11 13 14 15 15 14 14 15 15 16 16 15 14 14 12 11 12 12 11 9 9 7 8 6 5 5 4 4 3 5 3 1 5 7 9 11 9 8 10
9 12 10 11 12 16 16 13 14 15 16 15 16 17 17 17 16 14 14 13 12 12 12 11 10 8 7 5 5 4 4 4 3 5 6 2 5 6 10 9 9 9 8
10 13 17 18 20 19 15 14 16 16 16 16 17 18 18 17 16 15 14 13 11 10 10 8 10 10 9 8 7 5 3 4 4 6 7 8 6 8 8 11 12 9 11
11 14 18 18 16 14 15 16 15 16 15 16 16 15 16 17 14 17 15 13 12 11 9 10 9 10 15 12 6 6 5 5 4 5 8 8 7 8 11 11 13 14 12
13 16 16 12 10 15 14 16 16 15 15 16 16 17 17 13 25 28 19 13 12 12 11 9 8 10 12 14 14 15 13 7 7 3 8 10 10 10 9 11 13 14 15
16 16 11 9 12 14 12 13 14 15 13 16 16 17 17 16 30 31 27 13 14 12 12 11 9 8 10 9 14 15 14 15 15 10 11 11 13 11 12 14 14 15 15
16 12 5 7 10 10 11 14 15 14 16 15 15 16 15 14 31 31 29 13 13 13 13 12 10 10 10 10 9 7 8 8 10 9 11 13 13 11 12 13 14 17 16
12 11 8 4 4 6 10 12 10 12 12 13 14 16 15 12 28 29 25 14 12 12 10 10 10 9 14 17 10 7 7 9 12 18 19 23 26 25 21 13 11 11 15
14 9 4 3 4 8 8 8 7 9 11 11 11 13 16 15 31 32 23 11 12 10 10 11 15 12 16 16 6 5 5 8 5 4 8 9 12 14 22 12 8 11 12
12 10 3 1 1 2 5 4 7 8 8 9 12 11 13 17 22 34 32 13 12 12 10 9 8 20 17 14 10 6 6 5 4 2 4 7 7 9 9 10 11 11 13
10 7 7 3 3 3 3 4 5 7 9 10 9 8 8 10 17 31 33 22 21 13 13 9 9 19 16 13 9 4 10 5 2 2 2 6 7 8 9 10 14 15 14
14 13 8 5 6 9 9 7 5 6 7 8 9 8 8 7 9 27 30 26 23 9 8 14 19 18 14 5 3 5 1 2 0 2 5 7 8 9 12 13 15 18 19
18 16 9 7 6 6 7 9 9 10 9 8 9 9 8 8 10 9 10 13 18 13 16 10 11 10 9 8 4 4 2 2 3 5 6 7 8 8 10 10 12 13 15
18 16 11 8 9 8 9 8 10 11 14 13 12 11 14 14 17 22 19 13 13 13 11 6 5 4 5 5 3 2 2 3 4 5 6 7 7 8 10 10 11 13 14
17 14 12 8 7 9 9 8 19 18 20 23 21 16 10 16 30 36 34 30 26 29 7 6 5 6 6 5 4 3 2 3 5 5 5 6 7 8 11 11 11 12 15
17 16 13 10 9 8 9 10 9 13 21 23 24 24 24 18 29 32 32 31 32 26 7 8 7 7 6 6 5 4 2 2 5 5 6 6 7 8 11 12 13 13 15
18 22 14 11 9 8 10 9 8 9 11 10 20 18 23 24 31 32 32 27 15 8 5 8 8 7 6 5 4 3 1 3 5 6 6 5 7 8 10 12 13 15 16
16 14 13 12 9 10 8 9 8 9 9 8 9 17 18 25 31 32 34 12 12 8 6 5 5 6 6 5 4 2 3 3 5 6 5 3 7 8 11 12 14 20 22
16 22 20 13 7 9 8 9 9 10 10 10 11 12 13 16 17 16 11 12 9 8 8 7 6 5 4 4 3 2 3 3 5 6 4 5 7 8 12 13 13 16 17
13 13 17 12 7 8 8 10 9 9 10 10 11 12 25 16 12 11 11 9 9 9 8 7 6 5 4 3 3 3 4 4 6 5 4 6 8 9 11 12 14 16 16
12 12 10 8 7 8 8 8 8 9 10 10 9 13 28 10 10 9 9 8 7 6 6 6 5 4 5 5 5 5 4 5 5 4 6 7 8 10 11 12 14 15 16
6 4 5 5 5 8 8 8 7 9 9 10 12 9 10 9 9 8 8 8 7 6 4 4 4 3 3 4 4 5 5 6 6 4 6 8 8 10 11 12 14 16 16
4 3 4 4 5 5 5 6 7 10 10 11 9 9 9 9 9 9 8 7 6 4 4 3 3 4 3 4 4 4 5 7 5 7 9 9 10 12 11 12 14 18 17
5 5 5 5 6 6 7 7 8 9 8 9 9 9 9 9 9 8 7 6 5 4 4 4 3 4 5 6 6 7 9 12 9 11 8 12 10 12 12 10 14 16 19
7 7 7 6 7 7 7 8 8 9 9 8 9 9 9 9 8 7 6 5 4 4 4 3 3 5 5 5 8 10 10 12 11 14 10 9 7 9 9 11 17 14 17
Wind_Direction
201 203 205 208 203 195 186 189 188 172 172 173 178 177 177 178 176 179 176 168 169 166 165 164 161 151 152 146 156 165 186 192 243 263 236 25 307 320 311 306 302 302 299
214 207 213 209 197 200 200 189 180 180 178 175 177 178 180 182 177 181 176 178 175 172 174 169 175 169 161 158 163 180 194 209 231 282 256 255 291 307 296 296 302 296 293
207 203 202 202 199 210 206 189 180 178 179 177 176 183 182 181 177 181 181 178 183 178 176 179 174 168 163 160 168 183 189 231 239 268 290 286 283 300 303 301 304 296 288
204 205 211 201 205 210 206 188 182 183 179 181 183 183 182 177 178 177 176 175 180 183 174 177 170 177 164 166 184 176 183 226 253 276 285 291 299 307 295 317 315 306 304
228 229 230 221 216 204 199 188 183 185 188 181 175 180 178 180 177 177 177 172 175 168 169 172 180 175 179 177 166 172 188 214 232 259 283 287 305 320 321 318 307 310 308
246 239 239 231 210 200 200 188 179 180 183 176 181 177 181 186 182 179 169 170 172 172 175 172 182 185 193 191 198 199 204 204 225 241 274 290 303 305 311 309 305 308 313
277 261 237 201 203 204 181 182 181 186 176 184 180 179 185 184 181 181 177 169 170 173 172 172 181 188 189 201 217 225 240 255 264 271 276 283 295 300 300 296 295 294 293
313 286 281 224 214 196 176 180 179 179 181 182 184 184 185 183 183 183 176 170 170 167 170 170 181 177 186 190 199 210 233 243 256 267 269 273 271 273 282 296 307 302 291
336 321 298 254 217 204 195 189 180 178 179 185 181 171 178 179 186 184 171 164 165 164 167 170 179 177 191 197 193 208 236 251 257 277 286 294 298 301 305 308 297 300 294
325 304 278 252 187 201 195 182 180 189 184 172 177 176 177 172 188 186 169 160 163 159 170 179 188 182 192 203 196 181 229 258 268 277 282 294 306 298 296 285 282 276 285
323 307 297 248 254 208 164 168 168 181 174 172 169 166 177 175 186 186 177 166 169 166 168 177 182 193 192 201 213 187 218 234 281 31 299 294 297 290 283 275 268 267 275
312 299 280 189 128 133 179 151 159 183 175 163 161 161 178 181 198 190 183 181 179 164 170 169 172 185 189 196 203 257 277 304 56 24 293 288 284 282 282 280 276 272 269
299 291 260 215 194 169 161 161 161 191 197 171 172 178 180 180 197 196 191 180 185 168 159 166 173 177 185 186 183 221 102 92 138 253 258 270 276 283 288 287 282 278 276
303 291 268 230 200 205 185 174 179 185 189 192 189 185 174 171 179 198 190 180 187 165 167 166 161 131 141 158 145 150 179 211 246 253 263 274 282 289 286 287 286 287 286
296 288 265 238 215 196 214 201 208 207 196 188 201 190 175 184 188 177 173 176 170 160 126 121 123 134 157 162 149 166 194 213 237 250 265 277 284 288 288 294 289 290 283
289 287 261 234 215 217 197 211 222 226 224 217 210 201 211 219 183 180 179 180 162 151 147 146 153 155 172 167 176 200 190 246 257 264 265 272 285 295 298 300 291 285 291
280 282 279 237 221 211 206 212 195 220 220 224 219 212 203 199 190 188 178 173 167 157 159 156 160 167 167 172 177 182 172 244 272 270 271 282 290 290 300 297 295 297 292
273 273 273 258 226 213 211 213 194 188 200 200 219 211 203 195 187 182 175 169 167 149 140 161 165 153 162 170 171 177 205 263 270 272 268 280 289 284 294 295 296 296 299
278 274 276 267 218 213 203 205 185 189 194 186 177 195 189 191 184 177 174 158 150 149 145 165 155 156 166 160 160 170 196 230 265 269 255 276 278 285 288 291 296 296 300
269 264 258 257 211 203 199 198 184 186 187 186 181 172 170 179 179 175 146 140 143 142 154 171 157 161 163 145 136 179 229 229 262 252 255 268 277 277 285 295 290 303 300
267 262 254 250 195 198 192 198 189 184 184 182 178 173 175 179 160 143 135 148 145 149 159 154 161 154 153 156 157 196 221 247 254 252 263 278 280 286 286 285 299 301 300
255 255 241 197 188 189 191 190 185 182 174 163 159 173 166 123 135 137 137 136 126 134 142 148 149 159 171 179 186 199 215 239 253 245 267 280 281 282 287 292 305 306 305
267 206 167 169 171 175 182 176 168 161 150 146 160 146 125 126 131 130 131 124 124 123 129 126 142 172 184 206 205 207 213 242 248 226 276 281 282 286 288 303 310 310 307
17 63 120 141 149 147 132 135 137 130 142 146 117 115 121 119 116 116 116 115 116 119 118 149 175 183 208 222 218 218 231 245 241 257 253 268 275 281 297 304 310 306 305
46 63 76 93 108 115 118 114 116 125 118 105 114 110 107 109 111 112 116 122 126 136 158 171 194 213 237 256 261 254 247 263 257 257 259 261 270 285 291 302 305 306 310
50 60 66 72 80 90 104 111 111 111 111 109 109 109 111 111 109 113 122 134 144 166 171 184 213 238 254 260 261 265 267 276 277 275 277 290 279 291 298 305 302 308 315